Barksdale AFB, LA

12:00 PM CDT on March 30, 2017 (GMT -0500)
Barksdale Air Force Base

Weather History for KBAD - February, 2012

Change the Weather History Date:

Friday, February 10, 2012

  Actual Average Record
Temperature  
Mean Temperature 45 °F -  
Max Temperature 51 °F 57 °F 77 °F (1999)
Min Temperature 37 °F 39 °F 22 °F (2011)
Degree Days  
Heating Degree Days 20    
Moisture  
Dew Point 40 °F    
Average Humidity 80    
Maximum Humidity 94    
Minimum Humidity 65    
Precipitation  
Precipitation 0.06 in - - ()
Sea Level Pressure  
Sea Level Pressure 30.16 in    
Wind  
Wind Speed 7 mph (NNW)    
Max Wind Speed 20 mph    
Max Gust Speed 26 mph    
Visibility 10 miles    
Events Rain    
Averages and records for this station are not official NWS values.
T = Trace of Precipitation, MM = Missing Value Source: NWS Daily Summary

Daily Weather History Graph

Daily Weather History Graph

Search for Another Location

Airport or City:

Trip Planner

Search our weather history database for the weather conditions in past years. The results will help you decide how hot, cold, wet, or windy it might be!

Date:

Astronomy

Feb. 10, 2012 Rise Set
Actual Time 7:02 AM CST 5:55 PM CST
Civil Twilight 6:37 AM CST 6:21 PM CST
Nautical Twilight 6:08 AM CST 6:50 PM CST
Astronomical Twilight 5:39 AM CST 7:18 PM CST
Moon 9:17 PM CST (2/10) 8:26 AM CST (2/10)
Length of Visible Light 11h 43m
Length of Day
10h 53m
Waning Gibbous, 90% of the Moon is Illuminated
Feb 10
Waning Gibbous
Feb 14
Last Quarter
Feb 21
New
Feb 29
First Quarter
Mar 8
Full

Hourly Weather History & Observations

Time (CST) Temp. Windchill Dew Point Humidity Pressure Visibility Wind Dir Wind Speed Gust Speed Precip Events Conditions
12:55 AM 46.6 °F - 36.3 °F 67% 30.19 in 10.0 mi South 4.6 mph - N/A   Overcast
1:55 AM 46.2 °F 43.3 °F 37.2 °F 71% 30.17 in 10.0 mi SSE 5.8 mph - N/A   Overcast
2:55 AM 46.0 °F 42.5 °F 36.1 °F 68% 30.15 in 10.0 mi South 6.9 mph - N/A   Overcast
3:26 AM 46.4 °F 42.4 °F 35.6 °F 66% 30.14 in 10.0 mi South 8.1 mph - N/A Rain Light Rain
3:43 AM 44.6 °F 40.7 °F 37.4 °F 76% 30.14 in 10.0 mi SSE 6.9 mph - N/A   Overcast
3:55 AM 44.6 °F 41.4 °F 38.1 °F 78% 30.14 in 10.0 mi South 5.8 mph - 0.00 in   Overcast
4:55 AM 44.1 °F 39.0 °F 38.5 °F 81% 30.14 in 10.0 mi South 9.2 mph - 0.01 in   Overcast
5:23 AM 44.6 °F 41.4 °F 39.2 °F 81% 30.14 in 10.0 mi SSE 5.8 mph - N/A   Light Drizzle
5:37 AM 44.6 °F 42.2 °F 39.2 °F 81% 30.14 in 10.0 mi SSE 4.6 mph - N/A   Mostly Cloudy
5:55 AM 43.9 °F 41.3 °F 38.7 °F 82% 30.13 in 10.0 mi SE 4.6 mph - 0.00 in   Overcast
6:02 AM 44.6 °F 42.2 °F 39.2 °F 81% 30.13 in 10.0 mi SSE 4.6 mph - N/A   Light Drizzle
6:20 AM 44.6 °F 43.1 °F 39.2 °F 81% 30.12 in 10.0 mi ENE 3.5 mph - N/A   Overcast
6:32 AM 44.6 °F 43.1 °F 39.2 °F 81% 30.12 in 10.0 mi ESE 3.5 mph - N/A   Light Drizzle
6:43 AM 44.6 °F - 39.2 °F 81% 30.12 in 10.0 mi Calm Calm - N/A   Overcast
6:48 AM 44.6 °F - 39.2 °F 81% 30.13 in 10.0 mi Calm Calm - N/A   Light Drizzle
6:55 AM 44.1 °F - 39.4 °F 84% 30.13 in 10.0 mi Calm Calm - 0.00 in Rain Light Rain
7:55 AM 44.1 °F - 39.7 °F 85% 30.14 in 10.0 mi Calm Calm - 0.03 in Rain Light Rain
8:10 AM 44.6 °F - 41.0 °F 87% 30.15 in 10.0 mi Calm Calm - N/A   Overcast
8:55 AM 44.2 °F 41.8 °F 41.0 °F 88% 30.14 in 10.0 mi SSE 4.6 mph - 0.00 in   Overcast
9:04 AM 44.6 °F 43.1 °F 41.0 °F 87% 30.15 in 10.0 mi South 3.5 mph - N/A Rain Light Rain
9:17 AM 44.6 °F 41.4 °F 41.0 °F 87% 30.14 in 10.0 mi South 5.8 mph - N/A   Overcast
9:55 AM 47.1 °F - 43.3 °F 87% 30.14 in 10.0 mi South 9.2 mph - 0.00 in   Overcast
10:55 AM 49.5 °F - 44.2 °F 82% 30.14 in 10.0 mi SSW 4.6 mph - N/A   Overcast
11:55 AM 51.3 °F - 45.1 °F 80% 30.12 in 10.0 mi SSW 4.6 mph - N/A   Overcast
12:16 PM 51.8 °F - 44.6 °F 76% 30.12 in 10.0 mi West 4.6 mph - N/A   Overcast
12:30 PM 51.8 °F - 44.6 °F 76% 30.11 in 10.0 mi Calm Calm - N/A Rain Light Rain
12:49 PM 51.8 °F - 46.4 °F 82% 30.11 in 10.0 mi WNW 4.6 mph - N/A   Overcast
12:55 PM 51.3 °F - 46.2 °F 83% 30.10 in 10.0 mi WNW 4.6 mph - 0.01 in   Overcast
1:10 PM 51.8 °F - 48.2 °F 88% 30.10 in 10.0 mi NW 5.8 mph - N/A   Overcast
1:55 PM 50.9 °F - 47.1 °F 87% 30.09 in 10.0 mi WNW 5.8 mph - N/A   Overcast
2:47 PM 50.0 °F - 46.4 °F 87% 30.09 in 10.0 mi NW 10.4 mph - N/A Rain Light Rain
2:55 PM 50.2 °F - 46.9 °F 89% 30.09 in 10.0 mi NNW 13.8 mph - 0.00 in   Light Drizzle
3:18 PM 50.0 °F - 48.2 °F 94% 30.10 in 8.0 mi NNW 10.4 mph - N/A   Overcast
3:55 PM 49.8 °F - 45.9 °F 86% 30.11 in 10.0 mi NNW 13.8 mph 21.9 mph 0.01 in   Overcast
4:12 PM 50.0 °F - 44.6 °F 82% 30.11 in 10.0 mi NNW 12.7 mph - N/A   Overcast
4:38 PM 50.0 °F - 46.4 °F 87% 30.12 in 10.0 mi NNW 13.8 mph - N/A   Overcast
4:55 PM 50.9 °F - 44.6 °F 79% 30.13 in 10.0 mi North 12.7 mph - N/A   Overcast
5:07 PM 50.0 °F - 44.6 °F 82% 30.13 in 10.0 mi North 11.5 mph - N/A   Mostly Cloudy
5:28 PM 50.0 °F - 42.8 °F 76% 30.14 in 10.0 mi North 12.7 mph - N/A   Scattered Clouds
5:55 PM 48.9 °F - 41.0 °F 74% 30.14 in 10.0 mi North 6.9 mph - N/A   Clear
6:55 PM 45.1 °F - 41.4 °F 87% 30.15 in 10.0 mi Calm Calm - N/A   Clear
7:55 PM 42.1 °F - 40.5 °F 94% 30.16 in 10.0 mi Calm Calm - N/A   Clear
8:55 PM 44.8 °F 39.0 °F 38.3 °F 78% 30.17 in 10.0 mi North 11.5 mph - N/A   Partly Cloudy
9:32 PM 44.6 °F 36.6 °F 37.4 °F 76% 30.21 in 10.0 mi North 19.6 mph 26.5 mph N/A   Mostly Cloudy
9:55 PM 43.3 °F 35.8 °F 34.7 °F 72% 30.22 in 10.0 mi North 16.1 mph 26.5 mph N/A   Overcast
10:28 PM 41.0 °F 33.1 °F 32.0 °F 70% 30.26 in 10.0 mi North 15.0 mph - N/A   Scattered Clouds
10:55 PM 40.3 °F 32.6 °F 30.7 °F 69% 30.27 in 10.0 mi North 13.8 mph 21.9 mph N/A   Scattered Clouds
10:59 PM 41.0 °F 33.9 °F 30.2 °F 65% 30.28 in 10.0 mi North 12.7 mph - N/A   Mostly Cloudy
11:06 PM 41.0 °F 32.8 °F 30.2 °F 65% 30.29 in 10.0 mi North 16.1 mph 23.0 mph N/A   Scattered Clouds
11:09 PM 39.2 °F 30.5 °F 30.2 °F 70% 30.29 in 10.0 mi NNW 16.1 mph 23.0 mph N/A   Mostly Cloudy
11:37 PM 39.2 °F 31.2 °F 28.4 °F 65% 30.31 in 10.0 mi North 13.8 mph - N/A   Scattered Clouds
11:55 PM 37.0 °F 30.4 °F 29.3 °F 74% 30.32 in 10.0 mi North 9.2 mph - N/A   Clear